Weather History for Marathon, FL

Change the Weather History Date:

Saturday, February 2, 2013

  Actual Average Record
Temperature  
Mean Temperature 70 °F 71 °F  
Max Temperature 76 °F 76 °F 85 °F (2007)
Min Temperature 63 °F 65 °F 55 °F (2003)
Degree Days  
Heating Degree Days 0 0  
Month to date heating degree days 0 1  
Since 1 July heating degree days 6 60  
Cooling Degree Days 5 6  
Month to date cooling degree days 8 12  
Year to date cooling degree days 336 193  
Growing Degree Days 19 (Base 50)    
Moisture  
Dew Point 54 °F    
Average Humidity 58    
Maximum Humidity 73    
Minimum Humidity 43    
Precipitation  
Precipitation 0.00 in 0.06 in 2.01 in (2009)
Month to date precipitation 0.00 0.12  
Year to date precipitation 0.54 1.73  
Snow  
Snow 0.00 in - - ()
Month to date snowfall 0.0  
Since 1 July snowfall 0.0  
Snow Depth 0.00 in    
Sea Level Pressure  
Sea Level Pressure 30.17 in    
Wind  
Wind Speed 11 mph (NE)    
Max Wind Speed 17 mph    
Max Gust Speed 24 mph    
Visibility 10 miles    
Events      
T = Trace of Precipitation, MM = Missing Value Source: NWS Daily Summary

Daily Weather History Graph

Daily Weather History Graph

Search for Another Location

Airport:

Trip Planner

Search our weather history database for the weather conditions in past years. The results will help you decide how hot, cold, wet, or windy it might be!

Date:

Astronomy

Feb. 02, 2013 Rise Set
Actual Time 7:05 AM EST 6:10 PM EST
Civil Twilight 6:42 AM EST 6:34 PM EST
Nautical Twilight 6:14 AM EST 7:01 PM EST
Astronomical Twilight 5:47 AM EST 7:28 PM EST
Moon No Moon Rise 11:03 AM EST (2/2)
Length of Visible Light 11h 52m
Length of Day
11h 04m
Waning Gibbous, 60% of the Moon is Illuminated
Feb 2
Waning Gibbous
Feb 3
Last Quarter
Feb 10
New
Feb 17
First Quarter
Feb 25
Full

Hourly Weather History & Observations

Time (EST) Temp. Dew Point Humidity Pressure Visibility Wind Dir Wind Speed Gust Speed Precip Events Conditions
12:53 AM 64.9 °F 55.0 °F 70% 30.20 in 10.0 mi NNE 13.8 mph 21.9 mph N/A   Mostly Cloudy
1:53 AM 64.9 °F 55.0 °F 70% 30.19 in 10.0 mi NNE 13.8 mph - N/A   Clear
2:53 AM 64.0 °F 55.0 °F 73% 30.19 in 10.0 mi NNE 13.8 mph - N/A   Clear
3:53 AM 64.0 °F 55.0 °F 73% 30.18 in 10.0 mi NNE 10.4 mph - N/A   Clear
4:53 AM 64.9 °F 55.0 °F 70% 30.18 in 10.0 mi NE 12.7 mph - N/A   Clear
5:53 AM 64.0 °F 55.0 °F 73% 30.19 in 10.0 mi NNE 11.5 mph - N/A   Clear
6:53 AM 63.0 °F 54.0 °F 72% 30.21 in 10.0 mi NNE 11.5 mph - N/A   Clear
7:53 AM 63.0 °F 52.0 °F 67% 30.22 in 10.0 mi NNE 13.8 mph 20.7 mph N/A   Clear
8:53 AM 64.9 °F 50.0 °F 58% 30.23 in 10.0 mi NNE 13.8 mph 21.9 mph N/A   Clear
9:53 AM 66.9 °F 50.0 °F 54% 30.24 in 10.0 mi NE 15.0 mph - N/A   Clear
10:53 AM 70.0 °F 52.0 °F 53% 30.22 in 10.0 mi NE 12.7 mph - N/A   Clear
11:53 AM 71.1 °F 52.0 °F 51% 30.20 in 10.0 mi NE 12.7 mph - N/A   Clear
12:53 PM 73.0 °F 54.0 °F 51% 30.17 in 10.0 mi NE 11.5 mph - N/A   Clear
1:53 PM 73.9 °F 55.0 °F 52% 30.15 in 10.0 mi NE 11.5 mph - N/A   Clear
2:53 PM 75.0 °F 52.0 °F 44% 30.13 in 10.0 mi East 10.4 mph - N/A   Clear
3:53 PM 73.9 °F 52.0 °F 46% 30.12 in 10.0 mi East 11.5 mph - N/A   Clear
4:53 PM 73.0 °F 52.0 °F 48% 30.12 in 10.0 mi East 9.2 mph 16.1 mph N/A   Clear
5:53 PM 72.0 °F 53.1 °F 51% 30.12 in 10.0 mi ENE 9.2 mph - N/A   Mostly Cloudy
6:53 PM 71.1 °F 55.0 °F 57% 30.12 in 10.0 mi ENE 6.9 mph - N/A   Clear
7:53 PM 71.1 °F 57.0 °F 61% 30.14 in 10.0 mi ENE 9.2 mph - N/A   Mostly Cloudy
8:53 PM 70.0 °F 57.0 °F 63% 30.15 in 10.0 mi NE 9.2 mph - N/A   Scattered Clouds
9:53 PM 70.0 °F 57.0 °F 63% 30.14 in 10.0 mi NE 8.1 mph - N/A   Clear
10:53 PM 69.1 °F 57.0 °F 65% 30.14 in 10.0 mi NE 8.1 mph - N/A   Clear
11:53 PM 69.1 °F 57.9 °F 68% 30.12 in 10.0 mi NE 5.8 mph - N/A   Mostly Cloudy